Погода в Фергане

Погода в Фергане : погода сейчас, прогноз погоды и архив. Всё, что Вы хотите узнать о погоде в Фергане!

Поиск расширенной информации на нашем сайте:

Другие новости

Новости СМИ2

Главная страница сайта

Новости сайта

03.07.2017

Напоминаем, что на нашем специализированном сайте Метеоцентр.Азия вы можете получить высокодетализированные автоматические прогнозы погоды по пунктам России, СНГ и мира в авиационном формате (включающие направление и скорость ветра, видимость, явления погоды, количество и форму облачности, нижнюю и верхнюю границу облачности).


Погода в Фергане - сегодня

Время (UTC), дата Ветер
(°,м/с) 
Видим.   Явления Облачность Т
(°С)
Тd
(°С)
f(%) Тe
(°С)
Pmin
(гПа)
dP
(гПа)
Po
(мм)
O2
(г/м3)
Тmin Tmax R s Состояние
почвы
18 22.09.18 тихо ()   н/о    9/0 средняя, верхняя 
[Ac trans|Ci sp]
+19.7 +12.6 64 +26  1015.2  -0.2  712  265    +26.7       
21 22.09.18 130 (ЮВ) н/о    6/0 средняя, верхняя 
[Ac lent|Ci ing]
+17.1 +11.8 71 +24  1015.5  -0.3  712  268           
00 23.09.18 120 (ЮВ) н/о    3/0 верхняя 
[Ci fib]
+14.6 +11.4 81 +20  1016.1  712  270           
03 23.09.18 тихо ()   10 км    8/0 средняя, верхняя 
[Ac lent|Cc]
+18.3 +11.3 64 +22  1016  0.6  713  267           
06 23.09.18 180 (Ю) 10 км    8/0 средняя, верхняя 
[Ac lent|Cc]
+24.4 +11.1 43 +28  1013.6  -0.8  712  261  +14.4         
09 23.09.18 тихо ()   10 км    6/0 средняя, верхняя 
[Ac lent|Cc]
+27.3 +10.7 35 +31  1010.5  -2.3  710  258           
12 23.09.18 270 (З) 10 км    10/0 средняя 
[Ac und]
+24.6 +11.1 43 +28  1011.4  0.2  710  261           
15 23.09.18 260 (З) н/о    10/0 средняя 
[Ac und]
+21.2 +5.3 35 +21  1017.9  5.2  714  266    +27.4       
18 23.09.18 140 (ЮВ) н/о  {ливн. осадки}  8/1 1000 м кучево-дожд., средняя 
[Cb cap|Ac und]
+19.9 +8.1 46 +21  1011.8  -5.8  710  265    +27.4       
21 23.09.18 тихо ()   н/о    3/0 средняя 
[Ac lent]
+15 +8.8 66 +16  1017.9  4.6  713  271           
00 24.09.18 тихо ()   н/о    3/0 средняя, верхняя 
[Ac lent|Ci fib]
+11.1 +8.6 85 +11  1018.8  713  275           
03 24.09.18 010 (С) 20000 м    ясно 
+14.5 +8.8 69 +17  1018.4  0.3  714  271  +10.9        сухая 
06 24.09.18 340 (С) 20000 м    ясно 
+21.5 +11 51 +25  1016.9  0.2  714  265  +10.9    0.0     
09 24.09.18 270 (З) 20000 м    1/1 1000 м 
[Cu hum]
+25.2 +11 41 +29  1015.1  -0.9  713  261           
12 24.09.18 350 (С) 20000 м    ясно 
+24.8 +8.6 36 +25  1014.2  -1  712  262           
15 24.09.18 120 (ЮВ) н/о    ясно 
+16.6 +9.5 63 +20  1016.7  0.6  713  269    +25.8       
18 24.09.18 150 (ЮВ) н/о    ясно 
+15.3 +8.9 66 +17  1017.1  0.1  713  270    +25.8       
21 24.09.18 040 (СВ) н/о    ясно 
+14.2 +9.3 72 +16  1016.9  -0.4  713  271           
00 25.09.18 150 (ЮВ) н/о    ясно 
+12.5 +6.8 68 +14  1017.4  713  273           
03 25.09.18 120 (ЮВ) 20000 м    ясно 
+15.7 +10.4 71 +20  1017  0.4  713  270  +10.5        сухая 
06 25.09.18 280 (З) 20000 м    ясно 
+23.4 +7.8 37 +23  1014.8  -0.4  713  263  +10.5         
09 25.09.18 350 (С) 20000 м    1/0 
[Cu hum]
+26.8 +10.2 35 +29  1012.3  -1.6  711  259           
12 25.09.18 280 (З) 20000 м    1/1 1000 м 
[Cu hum]
+25.6 +10.2 38 +28  1011.5  -1  711  260           
15 25.09.18 тихо ()   н/о    1/0 верхняя 
[Ci fib]
+16.4 +12.2 76 +22  1014.1  0.5  711  268    +27       
18 25.09.18 150 (ЮВ) н/о    ясно 
+15.3 +11.2 77 +21  1014.4  0.1  711  269    +27       
Время (UTC), дата Ветер
(°,м/с) 
Видим.   Явления Облачность Т
(°С)
Тd
(°С)
f(%) Тe
(°С)
Pmin
(гПа)
dP
(гПа)
Po
(мм)
O2
(г/м3)
Тmin Tmax R s Состояние
почвы

Для получения пояснительной информации подведите курсор к названию столбца.

ПОГОДА в Фергане - архив

Всё, что Вы хотите узнать о погоде в Фергане - удобно и подробно!

Выберите нужную дату (начиная с 1 января 2015* года) и нажмите кнопку "Найти".
Будут отображены архивные сводки погоды по пункту Фергана, начиная с указанной даты.


Отображать данные в формате CSV (для использования в таблицах Excel)


Внимание! Наш архив погоды предназначен исключительно для личного некоммерческого использования в познавательных целях. Если Вам необходимы официальные справки о состоянии погоды (для производственных, юридических, коммерческих и т.п. целей), обращайтесь в органы Росгидромета.

*Примечание: данная дата относится к архиву по метеостанциям СССР (Россия, СНГ, Балтия).
Архив по метеостанциям Зарубежной Европы и Азии (кроме Китая) хранится 10 дней, по другим регионам земного шара (Китай, Африка, Америка, Австралия, Океания) - 1 день.

Фергана - район местоположения метеостанции


Название, широта, долгота, высота метеостанции:
Фергана 40.4°ш. 71.8°д. 605 м над ур. моря [Узбекистан]

Дополнительная информация

В oтличие oт бoльшинства пoгoдных сайтoв мы публикуем пoдрoбную метеoинфoрмацию в детальнoм прoфессиoнальнoм фoрмате.

Характеристики температуры и влажнoсти вoздуха измеряются на высoте 2 м в тени вдали oт зданий и деревьев.
Скoрoсть ветра измеряется на высoте 10 м (на урoвне рoста челoвека скoрoсть ветра ниже в 1.5-2 раза). Если метеoстанция нахoдится в гoрoде или в лесу, тo скoрoсть ветра занижена на 2-4 м/с пo сравнению с oткрытым местoм. Скoрoсть ветра над акватoриями крупных рек и oзёр, а также на вершинах хoлмoв на 2-5 м/с выше, чем в oбычных услoвиях.
Атмoсфернoе давление в разных тoчках местнoсти мoжет значительнo oтличаться oт давления на метеoстанции, в зависимoсти oт услoвий рельефа (при пoдъёме на 10 м давление пoнижается примернo на 1 мм рт.ст.).